This demonstration page uses our WeatherBlox Daily Observations layout. Learn more.

Left ArrowRight Arrow

41.55636, -103.73856

Hourly Observations for November 15, 2021

Temp ( °F °C ) Dew Point ( °F °C ) Humidity (%) Winds ( mph kmh ) Pressure ( in mb ) Visibility ( mi km ) Precip ( " mm )
12:58 am 00:58 Clear 56 13.3 31 -0.8 38 38 WNW 17 28 29.88 1012 10 16 0.00 0.00
1:58 am 01:58 Clear 57 14 29 -1.6 34 34 WNW 20 31 29.88 1012 10 16 0.00 0.00
2:58 am 02:58 Clear 57 13.8 28 -2 34 34 WNW 18 30 29.89 1012 10 16 0.00 0.00
3:58 am 03:58 Clear 56 13.2 28 -2.2 35 35 WNW 17 28 29.92 1013 10 16 0.00 0.00
4:58 am 04:58 Clear 56 13.2 28 -2.5 34 34 WNW 22 35 29.93 1014 10 16 0.00 0.00
5:58 am 05:58 Clear 55 12.8 28 -2.5 35 35 WNW 17 28 29.95 1014 10 16 0.00 0.00
6:58 am 06:58 Sunny 50 10.2 28 -2.4 42 42 W 7 11 30.02 1017 10 16 0.00 0.00
7:58 am 07:58 Sunny 56 13.2 28 -2.5 34 34 W 16 26 30.02 1017 10 16 0.00 0.00
8:58 am 08:58 Sunny 62 16.6 26 -3.5 25 25 WNW 20 31 30.00 1016 10 16 0.00 0.00
9:58 am 09:58 Sunny 65 18.5 23 -4.8 20 20 WNW 24 39 30.00 1016 10 16 0.00 0.00
10:58 am 10:58 Sunny 68 20 22 -5.7 17 17 WNW 20 31 29.98 1015 10 16 0.00 0.00
11:58 am 11:58 Sunny 70 21 20 -6.8 15 15 NW 18 30 29.96 1014 10 16 0.00 0.00
12:58 pm 12:58 Sunny 71 21.8 18 -7.7 13 13 WNW 17 28 29.92 1013 10 16 0.00 0.00
1:58 pm 13:58 Sunny 68 20 21 -5.9 17 17 NW 16 26 29.93 1013 10 16 0.00 0.00
2:58 pm 14:58 Sunny 69 20.6 18 -7.7 14 14 W 18 30 29.92 1013 10 16 0.00 0.00
3:58 pm 15:58 Sunny 67 19.3 20 -6.9 16 16 WNW 12 19 29.89 1012 10 16 0.00 0.00
4:58 pm 16:58 Clear 56 13.5 22 -5.6 26 26 W 10 17 29.91 1013 10 16 0.00 0.00
5:58 pm 17:58 Clear 51 10.5 19 -7 29 29 SW 8 13 29.91 1013 10 16 0.00 0.00
6:58 pm 18:58 Clear 53 11.5 19 -7.1 27 27 SSW 10 17 29.90 1012 10 16 0.00 0.00
7:58 pm 19:58 Clear 52 11.2 19 -7.4 27 27 SW 15 24 29.86 1011 10 16 0.00 0.00
8:58 pm 20:58 Mostly Cloudy 56 13.1 19 -7.1 24 24 SSW 20 31 29.82 1010 10 16 0.00 0.00
9:58 pm 21:58 Mostly Cloudy 56 13.5 20 -6.7 24 24 SSW 14 22 29.78 1009 10 16 0.00 0.00
10:58 pm 22:58 Mostly Cloudy 55 12.9 20 -6.5 26 26 SW 13 20 29.75 1008 10 16 0.00 0.00
11:58 pm 23:58 Mostly Cloudy 53 11.9 22 -5.5 29 29 SW 7 11 29.72 1007 10 16 0.00 0.00

Powered by AerisWeather